When you browse on this site, cookies collect data to enhance your experience and personalize the content and advertising you see.
Visit our Privacy Policy to learn more. By continuing to use the site, you agree to this use of cookies and data.
EN

Hourly Weather Serednii Uhryniv

Today, 10 August, Monday

Time Temperature Precipitation Wind Pressure Humidity
00:00 +22°C° 0 mm 1 mps 729 mmHg 97%
01:00 +22°C° 0 mm 1 mps 728 mmHg 98%
02:00 +21°C° 0 mm 1 mps 728 mmHg 100%
03:00 +20°C° 0 mm 1 mps 728 mmHg 100%
04:00 +20°C° 0 mm 1 mps 728 mmHg 100%
05:00 +20°C° 0 mm 1 mps 728 mmHg 100%
06:00 +20°C° 0 mm 1 mps 728 mmHg 100%
07:00 +20°C° 0 mm 1 mps 728 mmHg 100%
08:00 +21°C° 0 mm 1 mps 728 mmHg 100%
09:00 +22°C° 0 mm 1 mps 729 mmHg 99%
10:00 +23°C° 0 mm 2 mps 729 mmHg 98%
11:00 +24°C° 0 mm 1 mps 729 mmHg 97%
12:00 +25°C° 0 mm 1 mps 729 mmHg 93%
13:00 +25°C° 0 mm 2 mps 728 mmHg 89%
14:00 +26°C° 0 mm 2 mps 728 mmHg 88%
15:00 +26°C° 0 mm 2 mps 728 mmHg 83%
16:00 +26°C° 0 mm 2 mps 727 mmHg 84%
17:00 +26°C° 0 mm 2 mps 728 mmHg 84%
18:00 +25°C° 0.1 mm 3 mps 727 mmHg 91%
19:00 +24°C° 0 mm 2 mps 727 mmHg 95%
20:00 +22°C° 0 mm 3 mps 728 mmHg 98%
21:00 +21°C° 0 mm 2 mps 728 mmHg 100%
22:00 +21°C° 0 mm 1 mps 728 mmHg 100%
23:00 +20°C° 0 mm 2 mps 728 mmHg 100%

Tomorrow, 11 August, Tuesday

Time Temperature Precipitation Wind Pressure Humidity
00:00 +20°C° 0 mm 2 mps 728 mmHg 100%
01:00 +20°C° 0 mm 1 mps 728 mmHg 100%
02:00 +20°C° 0 mm 1 mps 728 mmHg 100%
03:00 +20°C° 0 mm 1 mps 728 mmHg 100%
04:00 +20°C° 0 mm 1 mps 728 mmHg 100%
05:00 +20°C° 0 mm 1 mps 729 mmHg 100%
06:00 +19°C° 0 mm 1 mps 728 mmHg 100%
07:00 +20°C° 0 mm 1 mps 728 mmHg 100%
08:00 +20°C° 0 mm 1 mps 729 mmHg 100%
09:00 +20°C° 0 mm 1 mps 729 mmHg 99%
10:00 +21°C° 0 mm 1 mps 730 mmHg 98%
11:00 +20°C° 0 mm 2 mps 730 mmHg 97%
12:00 +21°C° 0 mm 2 mps 730 mmHg 95%
13:00 +23°C° 0 mm 2 mps 730 mmHg 92%
14:00 +24°C° 0 mm 2 mps 729 mmHg 90%
15:00 +24°C° 0 mm 2 mps 729 mmHg 87%
16:00 +24°C° 0 mm 3 mps 729 mmHg 88%
17:00 +24°C° 0.1 mm 2 mps 729 mmHg 89%
18:00 +24°C° 0 mm 2 mps 729 mmHg 92%
19:00 +23°C° 0.1 mm 2 mps 729 mmHg 94%
20:00 +22°C° 0 mm 1 mps 729 mmHg 97%
21:00 +20°C° 0 mm 2 mps 729 mmHg 100%
22:00 +20°C° 0 mm 2 mps 729 mmHg 100%
23:00 +20°C° 0 mm 2 mps 730 mmHg 100%

Day after tomorrow, 12 August, Wednesday

Time Temperature Precipitation Wind Pressure Humidity
00:00 +19°C° 0 mm 2 mps 730 mmHg 100%
01:00 +20°C° 0 mm 1 mps 729 mmHg 100%
02:00 +18°C° 0 mm 2 mps 729 mmHg 100%
03:00 +19°C° 0 mm 1 mps 729 mmHg 100%
04:00 +19°C° 0 mm 1 mps 729 mmHg 100%
05:00 +19°C° 0 mm 1 mps 729 mmHg 100%
06:00 +19°C° 0 mm 1 mps 729 mmHg 100%
07:00 +19°C° 0 mm 1 mps 730 mmHg 100%
08:00 +19°C° 0 mm 1 mps 730 mmHg 100%
09:00 +19°C° 0 mm 1 mps 730 mmHg 99%
10:00 +18°C° 0 mm 2 mps 731 mmHg 100%
11:00 +19°C° 0 mm 1 mps 731 mmHg 100%
12:00 +19°C° 0 mm 2 mps 731 mmHg 99%
13:00 +21°C° 0 mm 1 mps 731 mmHg 96%
14:00 +22°C° 0 mm 1 mps 731 mmHg 89%
15:00 +21°C° 1 mm 3 mps 730 mmHg 91%
16:00 +21°C° 0.2 mm 3 mps 730 mmHg 88%
17:00 +21°C° 0.2 mm 2 mps 730 mmHg 87%
18:00 +20°C° 0.4 mm 3 mps 730 mmHg 91%
19:00 +20°C° 0 mm 3 mps 730 mmHg 91%
20:00 +19°C° 0 mm 2 mps 731 mmHg 95%
21:00 +19°C° 0 mm 1 mps 731 mmHg 97%
22:00 +18°C° 0 mm 1 mps 731 mmHg 98%
23:00 +18°C° 0 mm 1 mps 731 mmHg 96%

13 August, Thursday

Time Temperature Precipitation Wind Pressure Humidity
00:00 +16°C° 0 mm 1 mps 731 mmHg 96%
01:00 +16°C° 0 mm 1 mps 731 mmHg 97%
02:00 +16°C° 0 mm 1 mps 731 mmHg 97%
03:00 +15°C° 0 mm 1 mps 730 mmHg 97%
04:00 +15°C° 0 mm 1 mps 730 mmHg 98%
05:00 +15°C° 0 mm 1 mps 730 mmHg 100%
06:00 +14°C° 0 mm 1 mps 730 mmHg 100%
07:00 +15°C° 0 mm 1 mps 730 mmHg 100%
08:00 +14°C° 0 mm 0 mps 730 mmHg 100%
09:00 +16°C° 0 mm 1 mps 731 mmHg 100%
10:00 +18°C° 0 mm 1 mps 731 mmHg 99%
11:00 +19°C° 0 mm 1 mps 731 mmHg 97%
12:00 +20°C° 0 mm 1 mps 731 mmHg 90%
13:00 +21°C° 0 mm 1 mps 731 mmHg 86%
14:00 +20°C° 0 mm 2 mps 730 mmHg 84%
15:00 +22°C° 0 mm 1 mps 730 mmHg 84%
16:00 +21°C° 0 mm 2 mps 730 mmHg 84%
17:00 +21°C° 0 mm 2 mps 730 mmHg 84%
18:00 +20°C° 0 mm 2 mps 730 mmHg 84%
19:00 +19°C° 0 mm 2 mps 729 mmHg 91%
20:00 +20°C° 0 mm 1 mps 730 mmHg 95%
21:00 +19°C° 0 mm 1 mps 730 mmHg 96%
22:00 +19°C° 0 mm 1 mps 730 mmHg 97%
23:00 +17°C° 0 mm 2 mps 730 mmHg 100%

14 August, Friday

Time Temperature Precipitation Wind Pressure Humidity
00:00 +16°C° 0 mm 2 mps 730 mmHg 100%
01:00 +16°C° 0 mm 2 mps 730 mmHg 100%
02:00 +16°C° 0 mm 2 mps 730 mmHg 100%
03:00 +16°C° 0 mm 2 mps 729 mmHg 100%
04:00 +15°C° 0 mm 2 mps 729 mmHg 100%
05:00 +15°C° 0 mm 2 mps 729 mmHg 100%
06:00 +14°C° 0 mm 3 mps 729 mmHg 100%
07:00 +16°C° 0 mm 3 mps 729 mmHg 100%
08:00 +16°C° 0 mm 3 mps 730 mmHg 99%
09:00 +17°C° 0 mm 3 mps 730 mmHg 98%
10:00 +18°C° 0 mm 3 mps 730 mmHg 98%
11:00 +19°C° 0 mm 3 mps 730 mmHg 96%
12:00 +18°C° 0 mm 4 mps 730 mmHg 96%
13:00 +18°C° 0 mm 4 mps 730 mmHg 95%
14:00 +20°C° 0 mm 3 mps 730 mmHg 90%
15:00 +20°C° 0 mm 3 mps 729 mmHg 88%
16:00 +21°C° 0 mm 3 mps 729 mmHg 88%
17:00 +20°C° 0 mm 3 mps 729 mmHg 89%
18:00 +20°C° 0.1 mm 4 mps 729 mmHg 93%
19:00 +19°C° 0 mm 4 mps 729 mmHg 95%
20:00 +18°C° 0 mm 3 mps 729 mmHg 96%
21:00 +17°C° 0 mm 3 mps 729 mmHg 99%
22:00 +16°C° 0 mm 5 mps 729 mmHg 100%
23:00 +16°C° 0 mm 5 mps 729 mmHg 100%

15 August, Saturday

Time Temperature Precipitation Wind Pressure Humidity
00:00 +17°C° 0 mm 4 mps 729 mmHg 100%
01:00 +17°C° 0 mm 3 mps 728 mmHg 100%
02:00 +16°C° 0 mm 3 mps 728 mmHg 100%
03:00 +16°C° 0 mm 3 mps 728 mmHg 100%
04:00 +16°C° 0 mm 3 mps 728 mmHg 100%
05:00 +16°C° 0 mm 3 mps 728 mmHg 100%
06:00 +16°C° 0 mm 3 mps 727 mmHg 100%
07:00 +16°C° 0 mm 3 mps 728 mmHg 100%
08:00 +16°C° 0 mm 3 mps 728 mmHg 100%
09:00 +16°C° 0 mm 3 mps 728 mmHg 100%
10:00 +17°C° 0 mm 3 mps 728 mmHg 99%
11:00 +18°C° 0 mm 2 mps 728 mmHg 99%
12:00 +18°C° 0 mm 3 mps 728 mmHg 97%
13:00 +19°C° 0 mm 2 mps 728 mmHg 97%
14:00 +20°C° 0 mm 3 mps 728 mmHg 95%
15:00 +21°C° 0 mm 4 mps 728 mmHg 93%
16:00 +20°C° 0 mm 4 mps 727 mmHg 93%
17:00 +20°C° 0.1 mm 3 mps 727 mmHg 93%
18:00 +20°C° 0 mm 3 mps 727 mmHg 95%
19:00 +19°C° 0 mm 3 mps 727 mmHg 96%
20:00 +18°C° 0 mm 2 mps 727 mmHg 98%
21:00 +18°C° 0 mm 2 mps 728 mmHg 99%
22:00 +18°C° 0 mm 2 mps 728 mmHg 100%
23:00 +17°C° 0 mm 2 mps 728 mmHg 100%
Show more